EW9931 Weather Reports


time (UTC)temp
C
wind
direction
speed
KPH
gust
KPH
rain 1hr
cm
rain 24hr
cm
rain mn
cm
humidity
%
barometer
mb
20260510173011 21 306 0.0 0.0 0.00 0.00 0.00 18 1006.4
20260510171505 21 285 0.0 0.0 0.00 0.00 0.00 16 1006.4
20260510170004 21 304 0.0 0.0 0.00 0.00 0.00 13 1005.8
20260510164502 20 38 0.0 0.0 0.00 0.00 0.00 13 1005.5
20260510163106 20 69 0.0 0.0 0.00 0.00 0.00 16 1005.8
20260510161601 20 65 0.0 0.0 0.00 0.00 0.00 17 1005.8
20260510160058 18 161 0.0 0.0 0.00 0.00 0.00 14 1005.4
20260510154553 18 124 0.0 0.0 0.00 0.00 0.00 12 1005.8
20260510153053 17 49 0.0 0.0 0.00 0.00 0.00 13 1005.8
20260510151544 16 49 0.0 0.0 0.00 0.00 0.00 13 1006.2
20260510150044 15 71 0.0 0.0 0.00 0.00 0.00 15 1005.4
20260510144546 14 72 0.0 0.0 0.00 0.00 0.00 18 1005.7
20260510143032 12 133 0.0 0.0 0.00 0.00 0.00 21 1006.2
20260510141528 11 229 0.0 0.0 0.00 0.00 0.00 24 1006.5
20260510140028 10 229 0.0 0.0 0.00 0.00 0.00 25 1005.9
20260510134523 10 229 0.0 0.0 0.00 0.00 0.00 25 1005.7
20260510133021 9 229 0.0 0.0 0.00 0.00 0.00 25 1006.0
20260510131519 9 229 0.0 0.0 0.00 0.00 0.00 23 1005.9
20260510130018 8 229 0.0 0.0 0.00 0.00 0.00 24 1004.9
20260510124516 8 229 0.0 0.0 0.00 0.00 0.00 23 1004.9
20260510123015 8 229 0.0 0.0 0.00 0.00 0.00 24 1004.8
20260510121515 8 229 0.0 0.0 0.00 0.00 0.00 23 1004.9
20260510120014 8 229 0.0 0.0 0.00 0.00 0.00 23 1004.4
20260510114514 8 229 0.0 0.0 0.00 0.00 0.00 22 1004.5
20260510113019 8 229 0.0 0.0 0.00 0.00 0.00 22 1004.5
20260510111512 8 229 0.0 0.0 0.00 0.00 0.00 22 1004.4
20260510110011 8 229 0.0 0.0 0.00 0.00 0.00 22 1004.5
20260510104512 8 229 0.0 0.0 0.00 0.00 0.00 22 1004.5
20260510103010 8 229 0.0 0.0 0.00 0.00 0.00 22 1004.3
20260510101509 8 229 0.0 0.0 0.00 0.00 0.00 24 1004.1
20260510100008 8 229 0.0 0.0 0.00 0.00 0.00 23 1004.1
20260510094507 8 229 0.0 0.0 0.00 0.00 0.00 24 1004.2
20260510093008 8 229 0.0 0.0 0.00 0.00 0.00 25 1004.2
20260510091505 8 229 0.0 0.0 0.00 0.00 0.00 24 1004.2
20260510090005 8 229 0.0 0.0 0.00 0.00 0.00 24 1004.2
20260510084507 8 229 0.0 0.0 0.00 0.00 0.00 25 1004.2
20260510083003 8 229 0.0 0.0 0.00 0.00 0.00 26 1004.2
20260510081502 8 229 0.0 0.0 0.00 0.00 0.00 27 1003.9
20260510080117 8 229 0.0 0.0 0.00 0.00 0.00 27 1003.9
20260510074618 8 229 0.0 0.0 0.00 0.00 0.00 27 1004.0
20260510073051 8 229 0.0 0.0 0.00 0.00 0.00 26 1004.0
20260510071556 8 229 0.0 0.0 0.00 0.00 0.00 27 1004.1
20260510070043 9 229 0.0 0.0 0.00 0.00 0.00 25 1004.6
20260510064552 9 229 0.0 0.0 0.00 0.00 0.00 20 1004.6
20260510063034 9 229 0.0 0.0 0.00 0.00 0.00 19 1004.7
20260510061529 9 229 0.0 0.0 0.00 0.00 0.00 16 1004.7
20260510060030 10 229 0.0 0.0 0.00 0.00 0.00 16 1005.1
20260510054525 10 229 0.0 0.0 0.00 0.00 0.00 17 1004.7
20260510053016 10 229 0.0 0.0 0.00 0.00 0.00 16 1004.7
20260510051516 10 229 0.0 0.0 0.00 0.00 0.00 16 1004.7
20260510050008 11 229 0.0 0.0 0.00 0.00 0.00 16 1004.6
20260510044503 11 229 0.0 0.0 0.00 0.00 0.00 16 1004.6
20260510043105 12 229 0.0 0.0 0.00 0.00 0.00 15 1004.6
20260510041609 12 229 0.0 0.0 0.00 0.00 0.00 15 1003.9
20260510040051 12 229 0.0 0.0 0.00 0.00 0.00 14 1004.1
20260510034547 13 229 0.0 0.0 0.00 0.00 0.00 15 1003.6
20260510033041 14 229 0.0 0.0 0.00 0.00 0.00 14 1003.5
20260510031537 15 229 0.0 0.0 0.00 0.00 0.00 14 1003.4
20260510030033 15 229 0.0 0.0 0.00 0.00 0.00 14 1004.7
20260510024528 16 229 0.0 0.0 0.00 0.00 0.00 15 1003.8
20260510023024 16 229 0.0 0.0 0.00 0.00 0.00 15 1003.9
20260510021520 17 229 0.0 0.0 0.00 0.00 0.00 16 1003.8
20260510020016 17 229 0.0 0.0 0.00 0.00 0.00 18 1005.0
20260510014520 18 193 0.0 0.0 0.00 0.00 0.00 17 1005.1
20260510013006 18 193 0.0 0.0 0.00 0.00 0.00 17 1005.1
20260510011503 19 193 1.6 0.0 0.00 0.00 0.00 18 1004.5
20260510010112 21 128 1.6 0.0 0.00 0.00 0.00 17 1004.1
20260510004600 21 186 1.6 0.0 0.00 0.00 0.00 17 1004.0
20260510003050 21 232 3.2 0.0 0.00 0.00 0.00 15 1004.0
20260510001545 22 198 1.6 0.0 0.00 0.00 0.00 15 1003.5
20260510000044 22 209 1.6 0.0 0.00 0.00 0.00 18 1003.4
20260509234556 21 155 3.2 0.0 0.00 0.00 0.00 17 1004.1
20260509233033 21 205 4.8 0.0 0.00 0.00 0.00 17 1004.2
20260509231532 22 199 3.2 0.0 0.00 0.00 0.00 17 1003.6
20260509230027 22 198 3.2 0.0 0.00 0.00 0.00 13 1003.9
20260509224519 22 120 3.2 0.0 0.00 0.00 0.00 15 1004.0
20260509223016 22 155 1.6 0.0 0.00 0.00 0.00 10 1004.4
20260509221525 22 136 3.2 0.0 0.00 0.00 0.00 10 1004.4
20260509220007 21 200 3.2 0.0 0.00 0.00 0.00 9 1004.5
20260509214502 22 213 1.6 0.0 0.00 0.00 0.00 7 1004.7
20260509213058 22 113 1.6 0.0 0.00 0.00 0.00 6 1004.5
20260509211553 22 192 1.6 0.0 0.00 0.00 0.00 7 1005.1
20260509210057 22 131 1.6 0.0 0.00 0.00 0.00 7 1004.6
20260509204545 22 176 1.6 0.0 0.00 0.00 0.00 7 1004.7
20260509203045 22 127 3.2 0.0 0.00 0.00 0.00 5 1004.7
20260509201537 22 185 1.6 0.0 0.00 0.00 0.00 7 1004.7
20260509200037 22 144 1.6 0.0 0.00 0.00 0.00 11 1004.7
20260509194531 22 232 1.6 0.0 0.00 0.00 0.00 12 1004.7
20260509193029 21 158 1.6 0.0 0.00 0.00 0.00 10 1005.4
20260509191527 21 244 3.2 0.0 0.00 0.00 0.00 9 1005.6
20260509190040 21 230 3.2 0.0 0.00 0.00 0.00 10 1005.1
20260509184533 21 171 1.6 0.0 0.00 0.00 0.00 9 1005.1
20260509183028 20 210 1.6 0.0 0.00 0.00 0.00 9 1005.5
20260509181521 20 138 1.6 0.0 0.00 0.00 0.00 9 1005.5
20260509180019 20 130 1.6 0.0 0.00 0.00 0.00 10 1005.0
20260509174523 20 240 1.6 0.0 0.00 0.00 0.00 9 1005.4